Location: L�gaud
(45.7115°N, 1.7775°E)
Time: 02:33:23
(UTC+00:00)

Daily predictions for brighter satellites

Satellite Brightness Start Highest point End
(mag) Time Altitude Azimuth Time Altitude Azimuth Time Altitude Azimuth
CENTAUR R/B 3.7 03:29:56 39° ENE 03:29:56 39° ENE 03:34:35 10° NE
Cosmos 1943 Rocket 3.5 03:48:57 34° NE 03:48:57 34° NE 03:52:16 10° NE
NOSS 3-2 (C) 4.2 03:50:59 46° E 03:50:59 46° E 03:56:07 10° NE
Cosmos 2297 4.4 04:09:08 47° NE 04:09:08 47° NE 04:13:11 10° NNE
Cosmos 2278 Rocket 4.4 04:19:52 13° N 04:19:52 13° N 04:20:29 10° N
USA 238 DEB 3.5 04:17:39 83° S 04:17:54 86° SE 04:24:47 10° NE
USA 238 3.5 04:17:43 82° S 04:18:00 86° SE 04:24:53 10° NE
Tsikada Rocket 4.1 04:13:34 10° S 04:19:43 75° E 04:26:01 10° NNE
USA 215 3.6 04:20:32 10° ESE 04:26:54 57° NNE 04:28:33 45° NNW
Meteor 2-3 Rocket 3.6 04:32:53 68° SSW 04:33:40 88° WNW 04:39:26 10° N
Cosmos 1241 Rocket 4.3 04:35:46 70° SW 04:35:46 70° SW 04:41:48 10° SSE
Cosmos 1812 3.6 04:43:26 49° ESE 04:43:26 49° ESE 04:46:44 10° SSE
SL-8 R/B 3.7 04:45:55 73° NNE 04:45:55 73° NNE 04:50:34 10° E
Meteor 1-26 Rocket 4.1 04:48:36 45° NNW 04:50:26 72° W 04:56:09 10° S
Gblst 52 Del rocket 4.4 04:52:05 54° WNW 04:53:08 63° NNW 04:59:52 10° ENE
Landsat 5 4.4 04:48:59 10° SSE 04:53:22 52° ENE 04:56:28 18° N
SKYMED 2 3.8 04:49:20 10° SSE 04:53:37 67° ENE 04:55:18 36° N
SL-19 R/B 4.1 04:49:42 10° SSE 04:55:18 79° WSW 04:58:03 32° NNW
Cosmos 2344 3.7 04:54:02 43° WNW 04:55:28 48° NW 05:03:12 10° NE
Cosmos 921 Rocket 3.0 05:03:15 63° SW 05:03:15 63° SW 05:07:24 10° S
Meteor 2-13 Rocket 4.3 04:56:59 10° SSW 05:03:05 79° W 05:09:12 10° N
Meteor 1-31 Rocket 3.2 05:00:59 10° NNE 05:04:52 63° ESE 05:08:44 10° S
Cosmos 2369 Rocket 2.0 04:59:44 11° SSW 05:05:06 83° WNW 05:10:45 10° NNE
CZ-4C R/B 3.9 05:04:30 10° SE 05:07:29 42° ENE 05:08:21 33° NNE
BREEZE-M DEB (TANK) 3.0 05:11:22 52° NNW 05:11:30 53° N 05:17:35 10° ENE
H-2A R/B 4.1 05:08:24 10° ESE 05:11:58 26° ENE 05:15:36 10° N
Okean 3 Rocket 3.8 05:09:04 10° S 05:13:35 75° E 05:18:09 10° NNE
H-2A R/B 2.5 05:09:54 10° N 05:13:58 65° WSW 05:17:20 10° SSW
Cosmos 1486 Rocket 3.9 05:10:47 10° SSW 05:16:04 75° WNW 05:21:23 10° NNE
DNEPR-1 R/B 3.9 05:14:05 37° NW 05:16:06 90° NE 05:21:50 10° SE
Cosmos 1862 3.2 05:12:45 10° S 05:16:42 88° E 05:20:40 10° N
Cosmos 1151 Rocket 2.9 05:15:09 32° NNW 05:17:08 72° W 05:21:29 10° S
CENTAUR R/B 3.0 05:17:08 35° WNW 05:18:51 41° NW 05:25:43 10° NNE
SAR-Lupe-3 4.4 05:16:52 10° N 05:20:29 79° WNW 05:24:04 10° SSW
Cosmos 1656 Rocket 3.5 05:17:24 10° SSW 05:22:48 83° WNW 05:28:17 10° NNE
Cosmos 1766 Rocket 3.4 05:19:01 10° SSW 05:23:20 77° W 05:27:41 10° N
SJ-12 3.9 05:19:34 10° N 05:23:39 58° WNW 05:27:42 10° SSW
CZ-2C R/B 2.7 05:25:04 10° S 05:30:28 57° W 05:35:47 10° NNW
Cosmos 2142 Rocket 4.5 05:24:26 10° NNW 05:30:44 68° W 05:37:03 10° S
Cosmos 1943 Rocket 3.0 05:30:31 28° NW 05:30:49 28° NW 05:35:40 10° N
Cosmos 1328 Rocket 3.4 05:29:16 14° NNW 05:32:59 69° W 05:37:19 10° S
NOSS 3-2 (A) 4.3 05:31:40 26° NW 05:33:16 29° NNW 05:39:05 10° NNE
MOS 1-B Rocket 4.4 05:30:53 10° SSW 05:36:45 40° W 05:41:05 15° NW
Envisat 3.1 05:33:26 10° N 05:38:20 50° WNW 05:43:13 10° SW
CZ-4B R/B 3.7 05:35:02 10° NNE 05:38:29 46° E 05:41:57 10° S
Cosmos 2279 Rocket 4.0 05:33:13 10° NNW 05:39:18 61° W 05:45:22 10° S
SL-27 R/B 3.2 05:36:26 14° N 05:39:23 53° ENE 05:42:51 10° SE
NOSS 3-2 (C) 4.0 05:38:28 25° W 05:41:10 38° NW 05:47:19 10° NNE
COSMO-SKYMED 1 3.0 05:37:43 10° SSW 05:41:45 38° W 05:43:53 23° NW
Iridium 2 4.3 05:39:53 10° SW 05:43:18 31° W 05:43:25 31° WNW
Cosmos 2098 Rocket 3.5 05:42:19 10° SW 05:46:01 37° WNW 05:50:39 10° N
Cosmos 968 Rocket 4.3 05:45:00 24° W 05:46:19 27° WNW 05:50:41 10° N
ATLAS 3B R/B 3.9 05:40:58 10° S 05:47:02 44° ESE 05:53:23 10° NE
Nadezhda 4 Rocket 4.1 05:43:17 10° S 05:49:26 79° E 05:55:41 10° N
Meteor 2-15 Rocket 4.4 05:45:49 10° N 05:51:56 89° E 05:58:01 10° S
Meteor 1-27 Rocket 3.8 05:48:39 10° N 05:54:19 84° E 06:00:04 10° SSE
NOAA 11 4.1 05:48:56 10° NNE 05:54:26 80° WNW 05:59:55 10° SSW
BREEZE M DEB (TANK) 2.8 05:53:54 23° WNW 05:55:34 42° N 05:57:42 10° ENE
Cosmos 2228 Rocket 4.3 05:53:22 10° N 05:57:41 44° ENE 06:02:00 10° SSE
Cosmos 1408 Rocket 3.4 05:53:27 10° SSW 05:57:44 70° W 06:02:03 10° N
SMAP 4.0 05:55:27 10° NNE 06:00:00 52° E 06:04:32 10° S
DMSP B5D1-3 4.5 05:59:01 10° S 06:04:08 70° WSW 06:09:19 10° NNW
Cosmos 1743 Rocket 3.7 06:01:31 10° S 06:05:53 76° E 06:10:16 10° NNE
Cosmos 1340 Rocket 2.9 06:03:45 10° S 06:07:41 79° E 06:11:42 10° NNE
Cosmos 1354 Rocket 4.1 06:04:18 10° SW 06:09:27 54° WNW 06:14:40 10° NNE
USA 215 3.5 06:03:33 10° SSE 06:09:55 55° SW 06:15:54 12° WNW
ADEOS 3.7 06:05:40 10° N 06:10:44 52° WNW 06:15:46 10° SW
FALCON 9 DEB 4.5 06:09:43 17° NW 06:11:25 25° N 06:14:18 10° NE
Cosmos 1515 Rocket 3.8 06:10:20 10° NNW 06:14:30 45° W 06:18:39 10° SSW
ATLAS 5 CENTAUR R/B 1.5 06:14:44 10° SSW 06:18:32 76° SE 06:22:49 10° NE
Cosmos 1939 Rocket 2.7 06:14:42 10° N 06:18:39 80° WNW 06:22:31 10° SSW
SJ 16-02 1.3 06:16:20 10° SSW 06:20:41 77° WNW 06:25:05 10° NNE
CZ-2C R/B 3.0 06:17:56 10° N 06:22:42 56° WNW 06:27:38 10° SSW
CZ-4B R/B 1.5 06:21:59 10° SSE 06:25:18 77° ENE 06:28:36 10° N
Meteor 1-25 Rocket 4.4 06:19:58 10° S 06:25:35 77° E 06:31:11 10° NNE
Meteor PRIRODA 4.1 06:22:53 10° N 06:26:15 37° WNW 06:29:37 10° SW
SL-8 R/B 4.3 06:23:53 11° WNW 06:28:14 46° SSW 06:32:46 10° SE
Cosmos 1515 3.6 06:24:56 10° NNW 06:28:44 76° W 06:32:31 10° S
FAST Rocket 4.3 06:29:18 10° SSW 06:31:48 42° WNW 06:34:45 10° N
Cosmos 1500 Rocket 3.8 06:30:06 10° SSW 06:34:26 51° WNW 06:38:50 10° N
Cosmos 1538 Rocket 4.0 06:32:48 10° NNW 06:38:04 78° WSW 06:43:13 10° SSE
Okean 1 3.4 06:37:18 10° N 06:41:17 81° E 06:45:14 10° S
H-2A R/B 2.4 06:38:22 10° NNE 06:43:17 68° ESE 06:48:11 10° S
Cosmos 2297 Rocket 3.0 06:39:34 10° NNW 06:45:06 50° ENE 06:50:35 10° SE
Sich 1 3.0 06:41:05 10° S 06:45:22 84° W 06:49:41 10° N
Cosmos 1805 Rocket 3.6 06:41:53 10° SSW 06:46:14 65° W 06:50:36 10° N
Cosmos 1707 Rocket 4.0 06:41:58 10° N 06:46:23 68° E 06:50:48 10° SSE
